segment_id,date_local,uptime,ped_lft,ped_rgt,ped_total,bike_lft,bike_rgt,bike_total,car_lft,car_rgt,car_total,heavy_lft,heavy_rgt,heavy_total,v85,car_speed0,car_speed10,car_speed20,car_speed30,car_speed40,car_speed50,car_speed60,car_speed70
100024661,2021-07-01 00:00,1.0,,,,26,19,45,,,,,,,
100024661,2021-07-01 01:00,1.0,,,,9,8,17,,,,,,,
100024661,2021-07-01 02:00,1.0,,,,4,5,9,,,,,,,
100024661,2021-07-01 03:00,1.0,,,,7,11,18,,,,,,,
100024661,2021-07-01 04:00,1.0,,,,3,4,7,,,,,,,
100024661,2021-07-01 05:00,1.0,,,,11,13,24,,,,,,,
100024661,2021-07-01 06:00,1.0,,,,27,34,61,,,,,,,
100024661,2021-07-01 07:00,1.0,,,,45,56,101,,,,,,,
100024661,2021-07-01 08:00,1.0,,,,99,139,238,,,,,,,
100024661,2021-07-01 09:00,1.0,,,,106,163,269,,,,,,,
100024661,2021-07-01 10:00,1.0,,,,72,72,144,,,,,,,
100024661,2021-07-01 11:00,1.0,,,,84,75,159,,,,,,,
100024661,2021-07-01 12:00,1.0,,,,108,114,222,,,,,,,
100024661,2021-07-01 13:00,1.0,,,,130,120,250,,,,,,,
100024661,2021-07-01 14:00,1.0,,,,116,115,231,,,,,,,
100024661,2021-07-01 15:00,1.0,,,,164,130,294,,,,,,,
100024661,2021-07-01 16:00,1.0,,,,216,164,380,,,,,,,
100024661,2021-07-01 17:00,1.0,,,,224,224,448,,,,,,,
100024661,2021-07-01 18:00,1.0,,,,317,255,572,,,,,,,
100024661,2021-07-01 19:00,1.0,,,,256,236,492,,,,,,,
100024661,2021-07-01 20:00,1.0,,,,160,181,341,,,,,,,
100024661,2021-07-01 21:00,1.0,,,,115,106,221,,,,,,,
100024661,2021-07-01 22:00,1.0,,,,112,100,212,,,,,,,
100024661,2021-07-01 23:00,1.0,,,,79,70,149,,,,,,,
100024661,2021-07-02 00:00,1.0,,,,42,40,82,,,,,,,
100024661,2021-07-02 01:00,1.0,,,,17,25,42,,,,,,,
100024661,2021-07-02 02:00,1.0,,,,15,6,21,,,,,,,
100024661,2021-07-02 03:00,1.0,,,,9,9,18,,,,,,,
100024661,2021-07-02 04:00,1.0,,,,11,7,18,,,,,,,
100024661,2021-07-02 05:00,1.0,,,,22,25,47,,,,,,,
100024661,2021-07-02 06:00,1.0,,,,52,72,124,,,,,,,
100024661,2021-07-02 07:00,1.0,,,,114,192,306,,,,,,,
100024661,2021-07-02 08:00,1.0,,,,269,368,637,,,,,,,
100024661,2021-07-02 09:00,1.0,,,,314,390,704,,,,,,,
100024661,2021-07-02 10:00,1.0,,,,84,202,286,,,,,,,
100024661,2021-07-02 11:00,1.0,,,,211,211,422,,,,,,,
100024661,2021-07-02 12:00,1.0,,,,290,244,534,,,,,,,
100024661,2021-07-02 13:00,1.0,,,,263,288,551,,,,,,,
100024661,2021-07-02 14:00,1.0,,,,306,311,617,,,,,,,
100024661,2021-07-02 15:00,1.0,,,,433,323,756,,,,,,,
100024661,2021-07-02 16:00,1.0,,,,409,383,792,,,,,,,
100024661,2021-07-02 17:00,1.0,,,,455,453,908,,,,,,,
100024661,2021-07-02 18:00,1.0,,,,482,507,989,,,,,,,
100024661,2021-07-02 19:00,1.0,,,,386,414,800,,,,,,,
100024661,2021-07-02 20:00,1.0,,,,296,335,631,,,,,,,
100024661,2021-07-02 21:00,1.0,,,,227,217,444,,,,,,,
100024661,2021-07-02 22:00,1.0,,,,150,187,337,,,,,,,
100024661,2021-07-02 23:00,1.0,,,,185,175,360,,,,,,,
100024661,2021-07-03 00:00,1.0,,,,164,163,327,,,,,,,
100024661,2021-07-03 01:00,1.0,,,,111,74,185,,,,,,,
100024661,2021-07-03 02:00,1.0,,,,62,42,104,,,,,,,
100024661,2021-07-03 03:00,1.0,,,,42,24,66,,,,,,,
100024661,2021-07-03 04:00,1.0,,,,44,17,61,,,,,,,
100024661,2021-07-03 05:00,1.0,,,,18,13,31,,,,,,,
100024661,2021-07-03 06:00,1.0,,,,20,12,32,,,,,,,
100024661,2021-07-03 07:00,1.0,,,,40,31,71,,,,,,,
100024661,2021-07-03 08:00,1.0,,,,81,59,140,,,,,,,
100024661,2021-07-03 09:00,1.0,,,,143,112,255,,,,,,,
100024661,2021-07-03 10:00,1.0,,,,215,174,389,,,,,,,
100024661,2021-07-03 11:00,1.0,,,,240,199,439,,,,,,,
100024661,2021-07-03 12:00,1.0,,,,276,294,570,,,,,,,
100024661,2021-07-03 13:00,1.0,,,,308,296,604,,,,,,,
100024661,2021-07-03 14:00,1.0,,,,303,325,628,,,,,,,
100024661,2021-07-03 15:00,1.0,,,,343,367,710,,,,,,,
100024661,2021-07-03 16:00,1.0,,,,292,380,672,,,,,,,
100024661,2021-07-03 17:00,1.0,,,,367,368,735,,,,,,,
100024661,2021-07-03 18:00,1.0,,,,347,404,751,,,,,,,
100024661,2021-07-03 19:00,1.0,,,,310,349,659,,,,,,,
100024661,2021-07-03 20:00,1.0,,,,253,306,559,,,,,,,
100024661,2021-07-03 21:00,1.0,,,,228,189,417,,,,,,,
100024661,2021-07-03 22:00,1.0,,,,204,167,371,,,,,,,
100024661,2021-07-03 23:00,1.0,,,,175,211,386,,,,,,,
100024661,2021-07-04 00:00,1.0,,,,165,145,310,,,,,,,
100024661,2021-07-04 01:00,1.0,,,,148,108,256,,,,,,,
100024661,2021-07-04 02:00,1.0,,,,60,46,106,,,,,,,
100024661,2021-07-04 03:00,1.0,,,,48,49,97,,,,,,,
100024661,2021-07-04 04:00,1.0,,,,37,26,63,,,,,,,
100024661,2021-07-04 05:00,1.0,,,,22,21,43,,,,,,,
100024661,2021-07-04 06:00,1.0,,,,16,14,30,,,,,,,
100024661,2021-07-04 07:00,1.0,,,,25,21,46,,,,,,,
100024661,2021-07-04 08:00,1.0,,,,37,36,73,,,,,,,
100024661,2021-07-04 09:00,1.0,,,,97,101,198,,,,,,,
100024661,2021-07-04 10:00,1.0,,,,124,118,242,,,,,,,
100024661,2021-07-04 11:00,1.0,,,,160,134,294,,,,,,,
100024661,2021-07-04 12:00,1.0,,,,193,201,394,,,,,,,
100024661,2021-07-04 13:00,1.0,,,,212,217,429,,,,,,,
100024661,2021-07-04 14:00,1.0,,,,214,249,463,,,,,,,
100024661,2021-07-04 15:00,1.0,,,,256,272,528,,,,,,,
100024661,2021-07-04 16:00,1.0,,,,244,304,548,,,,,,,
100024661,2021-07-04 17:00,1.0,,,,216,288,504,,,,,,,
100024661,2021-07-04 18:00,1.0,,,,259,277,536,,,,,,,
100024661,2021-07-04 19:00,1.0,,,,225,220,445,,,,,,,
100024661,2021-07-04 20:00,1.0,,,,198,159,357,,,,,,,
100024661,2021-07-04 21:00,1.0,,,,172,158,330,,,,,,,
100024661,2021-07-04 22:00,1.0,,,,180,125,305,,,,,,,
100024661,2021-07-04 23:00,1.0,,,,93,100,193,,,,,,,
100024661,2021-07-05 00:00,1.0,,,,71,63,134,,,,,,,
100024661,2021-07-05 01:00,1.0,,,,30,33,63,,,,,,,
100024661,2021-07-05 02:00,1.0,,,,17,9,26,,,,,,,
100024661,2021-07-05 03:00,1.0,,,,10,2,12,,,,,,,
100024661,2021-07-05 04:00,1.0,,,,8,11,19,,,,,,,
100024661,2021-07-05 05:00,1.0,,,,22,41,63,,,,,,,
100024661,2021-07-05 06:00,1.0,,,,57,99,156,,,,,,,
100024661,2021-07-05 07:00,1.0,,,,181,241,422,,,,,,,
100024661,2021-07-05 08:00,1.0,,,,373,597,970,,,,,,,
100024661,2021-07-05 09:00,1.0,,,,337,434,771,,,,,,,
100024661,2021-07-05 10:00,1.0,,,,113,111,224,,,,,,,
100024661,2021-07-05 11:00,1.0,,,,120,109,229,,,,,,,
100024661,2021-07-05 12:00,1.0,,,,117,97,214,,,,,,,
100024661,2021-07-05 13:00,1.0,,,,161,165,326,,,,,,,
100024661,2021-07-05 14:00,1.0,,,,245,191,436,,,,,,,
100024661,2021-07-05 15:00,1.0,,,,332,259,591,,,,,,,
100024661,2021-07-05 16:00,1.0,,,,383,325,708,,,,,,,
100024661,2021-07-05 17:00,1.0,,,,505,404,909,,,,,,,
100024661,2021-07-05 18:00,1.0,,,,599,524,1123,,,,,,,
100024661,2021-07-05 19:00,1.0,,,,395,402,797,,,,,,,
100024661,2021-07-05 20:00,1.0,,,,258,286,544,,,,,,,
100024661,2021-07-05 21:00,1.0,,,,208,171,379,,,,,,,
100024661,2021-07-05 22:00,1.0,,,,184,176,360,,,,,,,
100024661,2021-07-05 23:00,1.0,,,,114,99,213,,,,,,,
100024661,2021-07-06 00:00,1.0,,,,55,60,115,,,,,,,
100024661,2021-07-06 01:00,1.0,,,,26,21,47,,,,,,,
100024661,2021-07-06 02:00,1.0,,,,10,10,20,,,,,,,
100024661,2021-07-06 03:00,1.0,,,,10,10,20,,,,,,,
100024661,2021-07-06 04:00,1.0,,,,8,9,17,,,,,,,
100024661,2021-07-06 05:00,1.0,,,,21,48,69,,,,,,,
100024661,2021-07-06 06:00,1.0,,,,64,125,189,,,,,,,
100024661,2021-07-06 07:00,1.0,,,,178,290,468,,,,,,,
100024661,2021-07-06 08:00,1.0,,,,453,675,1128,,,,,,,
100024661,2021-07-06 09:00,1.0,,,,449,558,1007,,,,,,,
100024661,2021-07-06 10:00,1.0,,,,255,282,537,,,,,,,
100024661,2021-07-06 11:00,1.0,,,,278,249,527,,,,,,,
100024661,2021-07-06 12:00,1.0,,,,292,276,568,,,,,,,
100024661,2021-07-06 13:00,1.0,,,,272,268,540,,,,,,,
100024661,2021-07-06 14:00,1.0,,,,320,307,627,,,,,,,
100024661,2021-07-06 15:00,1.0,,,,383,328,711,,,,,,,
100024661,2021-07-06 16:00,1.0,,,,470,374,844,,,,,,,
100024661,2021-07-06 17:00,1.0,,,,594,507,1101,,,,,,,
100024661,2021-07-06 18:00,1.0,,,,569,588,1157,,,,,,,
100024661,2021-07-06 19:00,1.0,,,,504,463,967,,,,,,,
100024661,2021-07-06 20:00,1.0,,,,334,338,672,,,,,,,
100024661,2021-07-06 21:00,1.0,,,,210,209,419,,,,,,,
100024661,2021-07-06 22:00,1.0,,,,228,168,396,,,,,,,
100024661,2021-07-06 23:00,1.0,,,,142,111,253,,,,,,,
100024661,2021-07-07 00:00,1.0,,,,146,136,282,,,,,,,
100024661,2021-07-07 01:00,1.0,,,,42,35,77,,,,,,,
100024661,2021-07-07 02:00,1.0,,,,17,8,25,,,,,,,
100024661,2021-07-07 03:00,1.0,,,,3,12,15,,,,,,,
100024661,2021-07-07 04:00,1.0,,,,5,5,10,,,,,,,
100024661,2021-07-07 05:00,1.0,,,,9,19,28,,,,,,,
100024661,2021-07-07 06:00,1.0,,,,26,43,69,,,,,,,
100024661,2021-07-07 07:00,1.0,,,,68,107,175,,,,,,,
100024661,2021-07-07 08:00,1.0,,,,140,210,350,,,,,,,
100024661,2021-07-07 09:00,1.0,,,,158,209,367,,,,,,,
100024661,2021-07-07 10:00,1.0,,,,97,104,201,,,,,,,
100024661,2021-07-07 11:00,1.0,,,,101,87,188,,,,,,,
100024661,2021-07-07 12:00,1.0,,,,146,145,291,,,,,,,
100024661,2021-07-07 13:00,1.0,,,,159,166,325,,,,,,,
100024661,2021-07-07 14:00,1.0,,,,222,188,410,,,,,,,
100024661,2021-07-07 15:00,1.0,,,,282,241,523,,,,,,,
100024661,2021-07-07 16:00,1.0,,,,271,237,508,,,,,,,
100024661,2021-07-07 17:00,1.0,,,,342,321,663,,,,,,,
100024661,2021-07-07 18:00,1.0,,,,447,413,860,,,,,,,
100024661,2021-07-07 19:00,1.0,,,,379,381,760,,,,,,,
100024661,2021-07-07 20:00,1.0,,,,270,280,550,,,,,,,
100024661,2021-07-07 21:00,1.0,,,,204,178,382,,,,,,,
100024661,2021-07-07 22:00,1.0,,,,146,134,280,,,,,,,
100024661,2021-07-07 23:00,1.0,,,,135,140,275,,,,,,,
100024661,2021-07-08 00:00,1.0,,,,131,128,259,,,,,,,
100024661,2021-07-08 01:00,1.0,,,,51,49,100,,,,,,,
100024661,2021-07-08 02:00,1.0,,,,16,21,37,,,,,,,
100024661,2021-07-08 03:00,1.0,,,,15,9,24,,,,,,,
100024661,2021-07-08 04:00,1.0,,,,9,10,19,,,,,,,
100024661,2021-07-08 05:00,1.0,,,,15,36,51,,,,,,,
100024661,2021-07-08 06:00,1.0,,,,61,99,160,,,,,,,
100024661,2021-07-08 07:00,1.0,,,,141,213,354,,,,,,,
100024661,2021-07-08 08:00,1.0,,,,346,536,882,,,,,,,
100024661,2021-07-08 09:00,1.0,,,,330,405,735,,,,,,,
100024661,2021-07-08 10:00,1.0,,,,225,200,425,,,,,,,
100024661,2021-07-08 11:00,1.0,,,,202,198,400,,,,,,,
100024661,2021-07-08 12:00,1.0,,,,231,249,480,,,,,,,
100024661,2021-07-08 13:00,1.0,,,,250,237,487,,,,,,,
100024661,2021-07-08 14:00,1.0,,,,263,248,511,,,,,,,
100024661,2021-07-08 15:00,1.0,,,,336,270,606,,,,,,,
100024661,2021-07-08 16:00,1.0,,,,360,259,619,,,,,,,
100024661,2021-07-08 17:00,1.0,,,,401,350,751,,,,,,,
100024661,2021-07-08 18:00,1.0,,,,501,431,932,,,,,,,
100024661,2021-07-08 19:00,1.0,,,,359,415,774,,,,,,,
100024661,2021-07-08 20:00,1.0,,,,248,252,500,,,,,,,
100024661,2021-07-08 21:00,1.0,,,,217,166,383,,,,,,,
100024661,2021-07-08 22:00,1.0,,,,202,171,373,,,,,,,
100024661,2021-07-08 23:00,1.0,,,,137,133,270,,,,,,,
100024661,2021-07-09 00:00,1.0,,,,76,72,148,,,,,,,
100024661,2021-07-09 01:00,1.0,,,,40,27,67,,,,,,,
100024661,2021-07-09 02:00,1.0,,,,26,14,40,,,,,,,
100024661,2021-07-09 03:00,1.0,,,,13,9,22,,,,,,,
100024661,2021-07-09 04:00,1.0,,,,10,14,24,,,,,,,
100024661,2021-07-09 05:00,1.0,,,,14,22,36,,,,,,,
100024661,2021-07-09 06:00,1.0,,,,27,30,57,,,,,,,
100024661,2021-07-09 07:00,1.0,,,,49,70,119,,,,,,,
100024661,2021-07-09 08:00,1.0,,,,124,189,313,,,,,,,
100024661,2021-07-09 09:00,1.0,,,,188,216,404,,,,,,,
100024661,2021-07-09 10:00,1.0,,,,137,124,261,,,,,,,
100024661,2021-07-09 11:00,1.0,,,,179,148,327,,,,,,,
100024661,2021-07-09 12:00,1.0,,,,193,205,398,,,,,,,
100024661,2021-07-09 13:00,1.0,,,,177,160,337,,,,,,,
100024661,2021-07-09 14:00,1.0,,,,245,147,392,,,,,,,
100024661,2021-07-09 15:00,1.0,,,,244,210,454,,,,,,,
100024661,2021-07-09 16:00,1.0,,,,263,241,504,,,,,,,
100024661,2021-07-09 17:00,1.0,,,,259,241,500,,,,,,,
100024661,2021-07-09 18:00,1.0,,,,308,294,602,,,,,,,
100024661,2021-07-09 19:00,1.0,,,,245,290,535,,,,,,,
100024661,2021-07-09 20:00,1.0,,,,176,178,354,,,,,,,
100024661,2021-07-09 21:00,1.0,,,,125,133,258,,,,,,,
100024661,2021-07-09 22:00,1.0,,,,114,88,202,,,,,,,
100024661,2021-07-09 23:00,1.0,,,,77,56,133,,,,,,,
100024661,2021-07-10 00:00,1.0,,,,57,58,115,,,,,,,
100024661,2021-07-10 01:00,1.0,,,,28,25,53,,,,,,,
100024661,2021-07-10 02:00,1.0,,,,26,15,41,,,,,,,
100024661,2021-07-10 03:00,1.0,,,,8,6,14,,,,,,,
100024661,2021-07-10 04:00,1.0,,,,11,5,16,,,,,,,
100024661,2021-07-10 05:00,1.0,,,,8,9,17,,,,,,,
100024661,2021-07-10 06:00,1.0,,,,11,11,22,,,,,,,
100024661,2021-07-10 07:00,1.0,,,,26,25,51,,,,,,,
100024661,2021-07-10 08:00,1.0,,,,51,39,90,,,,,,,
100024661,2021-07-10 09:00,1.0,,,,127,115,242,,,,,,,
100024661,2021-07-10 10:00,1.0,,,,156,149,305,,,,,,,
100024661,2021-07-10 11:00,1.0,,,,186,183,369,,,,,,,
100024661,2021-07-10 12:00,1.0,,,,267,275,542,,,,,,,
100024661,2021-07-10 13:00,1.0,,,,310,299,609,,,,,,,
100024661,2021-07-10 14:00,1.0,,,,320,313,633,,,,,,,
100024661,2021-07-10 15:00,1.0,,,,349,361,710,,,,,,,
100024661,2021-07-10 16:00,1.0,,,,304,361,665,,,,,,,
100024661,2021-07-10 17:00,1.0,,,,316,389,705,,,,,,,
100024661,2021-07-10 18:00,1.0,,,,353,348,701,,,,,,,
100024661,2021-07-10 19:00,1.0,,,,297,361,658,,,,,,,
100024661,2021-07-10 20:00,1.0,,,,244,256,500,,,,,,,
100024661,2021-07-10 21:00,1.0,,,,185,186,371,,,,,,,
100024661,2021-07-10 22:00,1.0,,,,176,167,343,,,,,,,
100024661,2021-07-10 23:00,1.0,,,,162,185,347,,,,,,,
100024661,2021-07-11 00:00,1.0,,,,172,129,301,,,,,,,
100024661,2021-07-11 01:00,1.0,,,,126,81,207,,,,,,,
100024661,2021-07-11 02:00,1.0,,,,103,75,178,,,,,,,
100024661,2021-07-11 03:00,1.0,,,,52,26,78,,,,,,,
100024661,2021-07-11 04:00,1.0,,,,34,24,58,,,,,,,
100024661,2021-07-11 05:00,1.0,,,,26,18,44,,,,,,,
100024661,2021-07-11 06:00,1.0,,,,19,14,33,,,,,,,
100024661,2021-07-11 07:00,1.0,,,,32,15,47,,,,,,,
100024661,2021-07-11 08:00,1.0,,,,47,35,82,,,,,,,
100024661,2021-07-11 09:00,1.0,,,,95,76,171,,,,,,,
100024661,2021-07-11 10:00,1.0,,,,114,130,244,,,,,,,
100024661,2021-07-11 11:00,1.0,,,,130,160,290,,,,,,,
100024661,2021-07-11 12:00,1.0,,,,160,208,368,,,,,,,
100024661,2021-07-11 13:00,1.0,,,,190,226,416,,,,,,,
100024661,2021-07-11 14:00,1.0,,,,227,275,502,,,,,,,
100024661,2021-07-11 15:00,1.0,,,,232,274,506,,,,,,,
100024661,2021-07-11 16:00,1.0,,,,201,243,444,,,,,,,
100024661,2021-07-11 17:00,1.0,,,,253,249,502,,,,,,,
100024661,2021-07-11 18:00,1.0,,,,287,268,555,,,,,,,
100024661,2021-07-11 19:00,1.0,,,,276,247,523,,,,,,,
100024661,2021-07-11 20:00,1.0,,,,222,263,485,,,,,,,
100024661,2021-07-11 21:00,1.0,,,,127,107,234,,,,,,,
100024661,2021-07-11 22:00,1.0,,,,109,89,198,,,,,,,
100024661,2021-07-11 23:00,1.0,,,,63,62,125,,,,,,,
100024661,2021-07-12 00:00,1.0,,,,195,191,386,,,,,,,
100024661,2021-07-12 01:00,1.0,,,,51,61,112,,,,,,,
100024661,2021-07-12 02:00,1.0,,,,23,22,45,,,,,,,
100024661,2021-07-12 03:00,1.0,,,,12,8,20,,,,,,,
100024661,2021-07-12 04:00,1.0,,,,9,15,24,,,,,,,
100024661,2021-07-12 05:00,1.0,,,,22,36,58,,,,,,,
100024661,2021-07-12 06:00,1.0,,,,64,91,155,,,,,,,
100024661,2021-07-12 07:00,1.0,,,,132,203,335,,,,,,,
100024661,2021-07-12 08:00,1.0,,,,288,454,742,,,,,,,
100024661,2021-07-12 09:00,1.0,,,,378,417,795,,,,,,,
100024661,2021-07-12 10:00,1.0,,,,184,217,401,,,,,,,
100024661,2021-07-12 11:00,1.0,,,,239,217,456,,,,,,,
100024661,2021-07-12 12:00,1.0,,,,225,243,468,,,,,,,
100024661,2021-07-12 13:00,1.0,,,,217,230,447,,,,,,,
100024661,2021-07-12 14:00,1.0,,,,263,244,507,,,,,,,
100024661,2021-07-12 15:00,1.0,,,,369,297,666,,,,,,,
100024661,2021-07-12 16:00,1.0,,,,395,326,721,,,,,,,
100024661,2021-07-12 17:00,1.0,,,,476,413,889,,,,,,,
100024661,2021-07-12 18:00,1.0,,,,560,510,1070,,,,,,,
100024661,2021-07-12 19:00,1.0,,,,409,400,809,,,,,,,
100024661,2021-07-12 20:00,1.0,,,,275,288,563,,,,,,,
100024661,2021-07-12 21:00,1.0,,,,202,188,390,,,,,,,
100024661,2021-07-12 22:00,1.0,,,,187,146,333,,,,,,,
100024661,2021-07-12 23:00,1.0,,,,125,96,221,,,,,,,
100024661,2021-07-13 00:00,1.0,,,,70,69,139,,,,,,,
100024661,2021-07-13 01:00,1.0,,,,39,35,74,,,,,,,
100024661,2021-07-13 02:00,1.0,,,,14,19,33,,,,,,,
100024661,2021-07-13 03:00,1.0,,,,12,10,22,,,,,,,
100024661,2021-07-13 04:00,1.0,,,,6,4,10,,,,,,,
100024661,2021-07-13 05:00,1.0,,,,22,44,66,,,,,,,
100024661,2021-07-13 06:00,1.0,,,,91,122,213,,,,,,,
100024661,2021-07-13 07:00,1.0,,,,149,290,439,,,,,,,
100024661,2021-07-13 08:00,1.0,,,,403,618,1021,,,,,,,
100024661,2021-07-13 09:00,1.0,,,,413,514,927,,,,,,,
100024661,2021-07-13 10:00,1.0,,,,215,259,474,,,,,,,
100024661,2021-07-13 11:00,1.0,,,,227,236,463,,,,,,,
100024661,2021-07-13 12:00,1.0,,,,261,244,505,,,,,,,
100024661,2021-07-13 13:00,1.0,,,,270,270,540,,,,,,,
100024661,2021-07-13 14:00,1.0,,,,257,240,497,,,,,,,
100024661,2021-07-13 15:00,1.0,,,,394,273,667,,,,,,,
100024661,2021-07-13 16:00,1.0,,,,425,386,811,,,,,,,
100024661,2021-07-13 17:00,1.0,,,,535,492,1027,,,,,,,
100024661,2021-07-13 18:00,1.0,,,,651,635,1286,,,,,,,
100024661,2021-07-13 19:00,1.0,,,,489,474,963,,,,,,,
100024661,2021-07-13 20:00,1.0,,,,350,303,653,,,,,,,
100024661,2021-07-13 21:00,1.0,,,,278,226,504,,,,,,,
100024661,2021-07-13 22:00,1.0,,,,249,188,437,,,,,,,
100024661,2021-07-13 23:00,1.0,,,,179,155,334,,,,,,,
100024661,2021-07-14 00:00,1.0,,,,88,88,176,,,,,,,
100024661,2021-07-14 01:00,1.0,,,,25,28,53,,,,,,,
100024661,2021-07-14 02:00,1.0,,,,30,17,47,,,,,,,
100024661,2021-07-14 03:00,1.0,,,,13,6,19,,,,,,,
100024661,2021-07-14 04:00,1.0,,,,8,10,18,,,,,,,
100024661,2021-07-14 05:00,1.0,,,,15,34,49,,,,,,,
100024661,2021-07-14 06:00,1.0,,,,56,100,156,,,,,,,
100024661,2021-07-14 07:00,1.0,,,,157,219,376,,,,,,,
100024661,2021-07-14 08:00,1.0,,,,400,490,890,,,,,,,
100024661,2021-07-14 09:00,1.0,,,,369,442,811,,,,,,,
100024661,2021-07-14 10:00,1.0,,,,204,247,451,,,,,,,
100024661,2021-07-14 11:00,1.0,,,,231,223,454,,,,,,,
100024661,2021-07-14 12:00,1.0,,,,255,238,493,,,,,,,
100024661,2021-07-14 13:00,1.0,,,,250,265,515,,,,,,,
100024661,2021-07-14 14:00,1.0,,,,321,268,589,,,,,,,
100024661,2021-07-14 15:00,1.0,,,,341,306,647,,,,,,,
100024661,2021-07-14 16:00,1.0,,,,421,320,741,,,,,,,
100024661,2021-07-14 17:00,1.0,,,,505,481,986,,,,,,,
100024661,2021-07-14 18:00,1.0,,,,643,589,1232,,,,,,,
100024661,2021-07-14 19:00,1.0,,,,473,502,975,,,,,,,
100024661,2021-07-14 20:00,1.0,,,,334,329,663,,,,,,,
100024661,2021-07-14 21:00,1.0,,,,263,203,466,,,,,,,
100024661,2021-07-14 22:00,1.0,,,,223,218,441,,,,,,,
100024661,2021-07-14 23:00,1.0,,,,154,173,327,,,,,,,
100024661,2021-07-15 00:00,1.0,,,,85,86,171,,,,,,,
100024661,2021-07-15 01:00,1.0,,,,29,35,64,,,,,,,
100024661,2021-07-15 02:00,1.0,,,,21,16,37,,,,,,,
100024661,2021-07-15 03:00,1.0,,,,7,10,17,,,,,,,
100024661,2021-07-15 04:00,1.0,,,,9,10,19,,,,,,,
100024661,2021-07-15 05:00,1.0,,,,15,34,49,,,,,,,
100024661,2021-07-15 06:00,1.0,,,,62,84,146,,,,,,,
100024661,2021-07-15 07:00,1.0,,,,125,217,342,,,,,,,
100024661,2021-07-15 08:00,1.0,,,,339,459,798,,,,,,,
100024661,2021-07-15 09:00,1.0,,,,351,440,791,,,,,,,
100024661,2021-07-15 10:00,1.0,,,,230,200,430,,,,,,,
100024661,2021-07-15 11:00,1.0,,,,221,241,462,,,,,,,
100024661,2021-07-15 12:00,1.0,,,,271,242,513,,,,,,,
100024661,2021-07-15 13:00,1.0,,,,318,281,599,,,,,,,
100024661,2021-07-15 14:00,1.0,,,,305,290,595,,,,,,,
100024661,2021-07-15 15:00,1.0,,,,327,346,673,,,,,,,
100024661,2021-07-15 16:00,1.0,,,,233,177,410,,,,,,,
100024661,2021-07-15 17:00,1.0,,,,467,348,815,,,,,,,
100024661,2021-07-15 18:00,1.0,,,,518,479,997,,,,,,,
100024661,2021-07-15 19:00,1.0,,,,426,433,859,,,,,,,
100024661,2021-07-15 20:00,1.0,,,,256,307,563,,,,,,,
100024661,2021-07-15 21:00,1.0,,,,252,211,463,,,,,,,
100024661,2021-07-15 22:00,1.0,,,,202,162,364,,,,,,,
100024661,2021-07-15 23:00,1.0,,,,145,130,275,,,,,,,
100024661,2021-07-16 00:00,1.0,,,,83,90,173,,,,,,,
100024661,2021-07-16 01:00,1.0,,,,58,39,97,,,,,,,
100024661,2021-07-16 02:00,1.0,,,,16,20,36,,,,,,,
100024661,2021-07-16 03:00,1.0,,,,13,15,28,,,,,,,
100024661,2021-07-16 04:00,1.0,,,,10,18,28,,,,,,,
100024661,2021-07-16 05:00,1.0,,,,28,23,51,,,,,,,
100024661,2021-07-16 06:00,1.0,,,,46,85,131,,,,,,,
100024661,2021-07-16 07:00,1.0,,,,121,171,292,,,,,,,
100024661,2021-07-16 08:00,1.0,,,,272,371,643,,,,,,,
100024661,2021-07-16 09:00,1.0,,,,323,337,660,,,,,,,
100024661,2021-07-16 10:00,1.0,,,,222,223,445,,,,,,,
100024661,2021-07-16 11:00,1.0,,,,254,234,488,,,,,,,
100024661,2021-07-16 12:00,1.0,,,,245,258,503,,,,,,,
100024661,2021-07-16 13:00,1.0,,,,295,285,580,,,,,,,
100024661,2021-07-16 14:00,1.0,,,,322,258,580,,,,,,,
100024661,2021-07-16 15:00,1.0,,,,349,296,645,,,,,,,
100024661,2021-07-16 16:00,1.0,,,,372,337,709,,,,,,,
100024661,2021-07-16 17:00,1.0,,,,408,347,755,,,,,,,
100024661,2021-07-16 18:00,1.0,,,,429,409,838,,,,,,,
100024661,2021-07-16 19:00,1.0,,,,365,395,760,,,,,,,
100024661,2021-07-16 20:00,1.0,,,,174,164,338,,,,,,,
100024661,2021-07-16 21:00,1.0,,,,175,160,335,,,,,,,
100024661,2021-07-16 22:00,1.0,,,,116,152,268,,,,,,,
100024661,2021-07-16 23:00,1.0,,,,127,135,262,,,,,,,
100024661,2021-07-17 00:00,1.0,,,,117,92,209,,,,,,,
100024661,2021-07-17 01:00,1.0,,,,86,55,141,,,,,,,
100024661,2021-07-17 02:00,1.0,,,,50,64,114,,,,,,,
100024661,2021-07-17 03:00,1.0,,,,36,24,60,,,,,,,
100024661,2021-07-17 04:00,1.0,,,,21,20,41,,,,,,,
100024661,2021-07-17 05:00,1.0,,,,16,16,32,,,,,,,
100024661,2021-07-17 06:00,1.0,,,,12,19,31,,,,,,,
100024661,2021-07-17 07:00,1.0,,,,33,22,55,,,,,,,
100024661,2021-07-17 08:00,1.0,,,,73,49,122,,,,,,,
100024661,2021-07-17 09:00,1.0,,,,104,82,186,,,,,,,
100024661,2021-07-17 10:00,1.0,,,,176,141,317,,,,,,,
100024661,2021-07-17 11:00,1.0,,,,187,193,380,,,,,,,
100024661,2021-07-17 12:00,1.0,,,,214,188,402,,,,,,,
100024661,2021-07-17 13:00,1.0,,,,246,228,474,,,,,,,
100024661,2021-07-17 14:00,1.0,,,,280,283,563,,,,,,,
100024661,2021-07-17 15:00,1.0,,,,324,320,644,,,,,,,
100024661,2021-07-17 16:00,1.0,,,,237,340,577,,,,,,,
100024661,2021-07-17 17:00,1.0,,,,307,306,613,,,,,,,
100024661,2021-07-17 18:00,1.0,,,,308,325,633,,,,,,,
100024661,2021-07-17 19:00,1.0,,,,288,325,613,,,,,,,
100024661,2021-07-17 20:00,1.0,,,,218,273,491,,,,,,,
100024661,2021-07-17 21:00,1.0,,,,195,199,394,,,,,,,
100024661,2021-07-17 22:00,1.0,,,,187,180,367,,,,,,,
100024661,2021-07-17 23:00,1.0,,,,190,123,313,,,,,,,
100024661,2021-07-18 00:00,1.0,,,,148,123,271,,,,,,,
100024661,2021-07-18 01:00,1.0,,,,98,67,165,,,,,,,
100024661,2021-07-18 02:00,1.0,,,,74,45,119,,,,,,,
100024661,2021-07-18 03:00,1.0,,,,46,29,75,,,,,,,
100024661,2021-07-18 04:00,1.0,,,,26,29,55,,,,,,,
100024661,2021-07-18 05:00,1.0,,,,23,14,37,,,,,,,
100024661,2021-07-18 06:00,1.0,,,,19,15,34,,,,,,,
100024661,2021-07-18 07:00,1.0,,,,21,19,40,,,,,,,
100024661,2021-07-18 08:00,1.0,,,,50,38,88,,,,,,,
100024661,2021-07-18 09:00,1.0,,,,97,73,170,,,,,,,
100024661,2021-07-18 10:00,1.0,,,,123,134,257,,,,,,,
100024661,2021-07-18 11:00,1.0,,,,158,173,331,,,,,,,
100024661,2021-07-18 12:00,1.0,,,,203,186,389,,,,,,,
100024661,2021-07-18 13:00,1.0,,,,173,206,379,,,,,,,
100024661,2021-07-18 14:00,1.0,,,,188,212,400,,,,,,,
100024661,2021-07-18 15:00,1.0,,,,199,218,417,,,,,,,
100024661,2021-07-18 16:00,1.0,,,,204,235,439,,,,,,,
100024661,2021-07-18 17:00,1.0,,,,206,257,463,,,,,,,
100024661,2021-07-18 18:00,1.0,,,,236,258,494,,,,,,,
100024661,2021-07-18 19:00,1.0,,,,227,232,459,,,,,,,
100024661,2021-07-18 20:00,1.0,,,,173,188,361,,,,,,,
100024661,2021-07-18 21:00,1.0,,,,181,165,346,,,,,,,
100024661,2021-07-18 22:00,1.0,,,,156,130,286,,,,,,,
100024661,2021-07-18 23:00,1.0,,,,100,80,180,,,,,,,
100024661,2021-07-19 00:00,1.0,,,,59,54,113,,,,,,,
100024661,2021-07-19 01:00,1.0,,,,27,33,60,,,,,,,
100024661,2021-07-19 02:00,1.0,,,,9,28,37,,,,,,,
100024661,2021-07-19 03:00,1.0,,,,18,6,24,,,,,,,
100024661,2021-07-19 04:00,1.0,,,,12,9,21,,,,,,,
100024661,2021-07-19 05:00,1.0,,,,28,38,66,,,,,,,
100024661,2021-07-19 06:00,1.0,,,,43,91,134,,,,,,,
100024661,2021-07-19 07:00,1.0,,,,132,238,370,,,,,,,
100024661,2021-07-19 08:00,1.0,,,,311,482,793,,,,,,,
100024661,2021-07-19 09:00,1.0,,,,334,420,754,,,,,,,
100024661,2021-07-19 10:00,1.0,,,,201,209,410,,,,,,,
100024661,2021-07-19 11:00,1.0,,,,215,209,424,,,,,,,
100024661,2021-07-19 12:00,1.0,,,,231,231,462,,,,,,,
100024661,2021-07-19 13:00,1.0,,,,233,229,462,,,,,,,
100024661,2021-07-19 14:00,1.0,,,,279,236,515,,,,,,,
100024661,2021-07-19 15:00,1.0,,,,312,290,602,,,,,,,